"startDT [UTC]","vpos","CH4 [ppm]","stdev(CH4) [ppm]","CO2 [ppm]","stdev(CO2) [ppm]","H2O [ppm]","stdev(H2O)","p_LGR [torr]","T_LGR [C]","mt1_LGR [us]","mt2_LGR [us]","T_ECpre [C]","T_EC1 [C]","T_EC2 [C]","p_inlet [hPa]","p_in [hPa]","p_out [hPa]","T_inlet [C]","RH_inlet [%]","dwpt_inlet [C]","T_vent [C]","RH_vent [%]","dwpt_vent [C]","flow_vent [l min-1]","flow_inlet [l min-1]","dwpt_sample [C]","T_room [C]"
2012-11-11 00:00:00,0.0,1.9097,0.0010,399.95,0.21,111.6,33.5,138.06,31.06,24.65,36.42,0.04,-272.75,-272.75,-45,567,-951,25.5,2.8,-23.7,25.5,2.8,-23.5,5.73,2.42,-25.3,30.3
2012-11-11 00:01:00,0.0,1.9098,0.0010,399.90,0.21,108.5,30.4,138.06,31.06,24.66,36.42,0.04,-272.75,-272.74,-45,567,-951,25.5,2.7,-23.9,25.5,2.8,-23.7,5.73,2.43,-25.3,30.3
2012-11-11 00:02:00,0.0,1.9107,0.0009,399.85,0.18,108.5,25.6,138.06,31.06,24.65,36.43,0.04,-272.74,-272.75,-45,567,-952,25.5,2.7,-24.1,25.5,2.7,-23.9,5.73,2.43,-25.3,30.3
2012-11-11 00:03:00,0.0,1.9092,0.0008,399.76,0.21,114.6,30.0,138.06,31.06,24.66,36.43,0.04,-272.75,-272.75,-45,567,-951,25.5,2.6,-24.3,25.5,2.7,-24.0,5.73,2.43,-25.3,30.3
2012-11-11 00:04:00,0.0,1.9097,0.0010,399.82,0.27,99.5,31.3,138.06,31.06,24.65,36.43,0.04,-272.75,-272.75,-45,567,-951,25.5,2.6,-24.4,25.5,2.7,-24.1,5.73,2.43,-25.3,30.3
2012-11-11 00:05:00,0.0,1.9094,0.0011,399.84,0.23,114.6,33.3,138.06,31.05,24.66,36.43,0.04,-272.74,-272.75,-45,567,-951,25.5,2.6,-24.4,25.5,2.7,-24.2,5.73,2.43,-25.3,30.3
2012-11-11 00:06:00,0.0,1.9100,0.0011,399.73,0.21,107.5,28.6,138.06,31.05,24.65,36.43,0.04,-272.75,-272.75,-45,567,-951,25.5,2.6,-24.4,25.5,2.7,-24.1,5.73,2.43,-25.3,30.4
2012-11-11 00:07:00,0.0,1.9087,0.0010,399.70,0.23,115.9,28.2,138.06,31.05,24.66,36.43,0.04,-272.75,-272.75,-45,567,-952,25.5,2.6,-24.2,25.5,2.7,-24.0,5.73,2.43,-25.3,30.4
2012-11-11 00:08:00,0.0,1.9089,0.0007,399.80,0.23,112.0,32.0,138.06,31.05,24.65,36.42,0.04,-272.75,-272.75,-45,567,-951,25.5,2.7,-24.0,25.5,2.8,-23.8,5.73,2.43,-25.3,30.3
2012-11-11 00:09:00,0.0,1.9086,0.0009,399.80,0.23,110.4,30.8,138.06,31.05,24.65,36.42,0.04,-272.75,-272.75,-45,567,-951,25.5,2.7,-23.8,25.5,2.8,-23.5,5.73,2.43,-25.3,30.3
2012-11-11 00:10:00,0.0,1.9086,0.0009,399.87,0.22,109.5,31.8,138.06,31.05,24.65,36.42,0.04,-272.75,-272.75,-45,567,-951,25.5,2.8,-23.7,25.5,2.8,-23.4,5.73,2.43,-25.3,30.3
2012-11-11 00:11:00,0.0,1.9086,0.0009,399.77,0.29,110.7,35.1,138.06,31.05,24.65,36.42,0.04,-272.75,-272.75,-45,567,-951,25.5,2.8,-23.5,25.5,2.9,-23.3,5.73,2.43,-25.3,30.3
2012-11-11 00:12:00,0.0,1.9088,0.0012,399.81,0.20,113.4,32.7,138.06,31.04,24.65,36.43,0.04,-272.75,-272.74,-45,567,-952,25.5,2.8,-23.4,25.5,2.9,-23.2,5.73,2.43,-25.4,30.3
2012-11-11 00:13:00,0.0,1.9092,0.0010,399.74,0.27,113.9,27.4,138.06,31.04,24.65,36.43,0.04,-272.75,-272.75,-45,567,-951,25.5,2.8,-23.4,25.5,2.9,-23.2,5.73,2.43,-25.4,30.3
2012-11-11 00:14:00,0.0,1.9096,0.0010,399.68,0.21,101.1,24.4,138.06,31.04,24.65,36.43,0.04,-272.75,-272.75,-45,567,-951,25.5,2.9,-23.4,25.5,2.9,-23.2,5.73,2.43,-25.3,30.3
2012-11-11 00:15:00,0.0,1.9100,0.0011,399.86,0.25,112.1,31.1,138.06,31.04,24.65,36.43,0.04,-272.75,-272.74,-45,567,-951,25.5,2.9,-23.4,25.5,2.9,-23.1,5.73,2.43,-25.3,30.3
2012-11-11 00:16:00,0.0,1.9101,0.0009,399.78,0.25,109.4,24.3,138.06,31.04,24.65,36.43,0.04,-272.75,-272.75,-45,567,-951,25.5,2.9,-23.3,25.5,2.9,-23.1,5.73,2.43,-25.4,30.4
2012-11-11 00:17:00,0.0,1.9099,0.0009,399.80,0.23,112.5,33.7,138.06,31.04,24.66,36.43,0.04,-272.75,-272.75,-45,567,-951,25.5,2.9,-23.3,25.5,2.9,-23.0,5.73,2.43,-25.3,30.3
2012-11-11 00:18:00,0.0,1.9102,0.0009,399.78,0.26,114.5,29.0,138.06,31.04,24.65,36.43,0.04,-272.75,-272.75,-45,567,-952,25.5,2.9,-23.2,25.5,3.0,-23.0,5.73,2.43,-25.3,30.3
2012-11-11 00:19:00,0.0,1.9096,0.0009,399.78,0.23,110.7,25.3,138.06,31.04,24.65,36.42,0.04,-272.75,-272.75,-45,567,-951,25.5,2.9,-23.2,25.5,3.0,-23.0,5.73,2.43,-25.3,30.3
2012-11-11 00:20:00,0.0,1.9095,0.0009,399.79,0.26,113.5,22.9,138.06,31.03,24.65,36.43,0.04,-272.75,-272.75,-45,567,-951,25.5,2.9,-23.2,25.5,3.0,-23.0,5.73,2.43,-25.3,30.3
2012-11-11 00:21:00,0.0,1.9092,0.0009,399.78,0.19,106.3,31.7,138.06,31.03,24.65,36.42,0.04,-272.75,-272.75,-45,567,-951,25.5,2.9,-23.3,25.5,3.0,-23.0,5.73,2.43,-25.3,30.3
2012-11-11 00:22:00,0.0,1.9089,0.0009,399.75,0.22,111.4,31.9,138.06,31.03,24.66,36.43,0.04,-272.75,-272.75,-45,567,-951,25.5,2.9,-23.3,25.5,2.9,-23.0,5.73,2.43,-25.3,30.3
2012-11-11 00:23:00,0.0,1.9090,0.0008,399.69,0.21,113.1,31.7,138.06,31.03,24.66,36.43,0.04,-272.75,-272.75,-45,567,-952,25.5,2.9,-23.3,25.5,3.0,-23.0,5.73,2.43,-25.4,30.3
2012-11-11 00:24:00,0.0,1.9099,0.0011,399.77,0.22,103.6,32.1,138.06,31.03,24.66,36.43,0.04,-272.75,-272.75,-45,567,-951,25.5,2.9,-23.3,25.5,2.9,-23.0,5.73,2.43,-25.4,30.3
2012-11-11 00:25:00,0.0,1.9098,0.0007,399.83,0.24,107.0,27.3,138.06,31.03,24.66,36.43,0.04,-272.74,-272.74,-45,567,-951,25.5,2.9,-23.3,25.5,2.9,-23.1,5.73,2.43,-25.3,30.3
2012-11-11 00:26:00,0.0,1.9103,0.0009,399.85,0.24,107.5,28.9,138.06,31.03,24.65,36.43,0.04,-272.75,-272.75,-45,567,-952,25.5,2.9,-23.4,25.5,2.9,-23.2,5.73,2.43,-25.4,30.3
2012-11-11 00:27:00,0.0,1.9101,0.0008,399.90,0.23,105.3,28.6,138.06,31.02,24.66,36.42,0.04,-272.75,-272.75,-45,567,-951,25.5,2.8,-23.4,25.5,2.9,-23.2,5.73,2.43,-25.4,30.3
2012-11-11 00:28:00,0.0,1.9102,0.0009,399.83,0.24,105.8,33.5,138.06,31.02,24.66,36.43,0.04,-272.74,-272.75,-45,567,-952,25.5,2.8,-23.5,25.5,2.9,-23.3,5.73,2.43,-25.4,30.3
2012-11-11 00:29:00,0.0,1.9103,0.0009,399.81,0.25,99.3,29.0,138.06,31.02,24.66,36.42,0.04,-272.75,-272.75,-45,567,-951,25.5,2.8,-23.7,25.5,2.8,-23.4,5.73,2.43,-25.4,30.3
2012-11-11 00:30:00,0.0,1.9097,0.0010,399.71,0.23,109.6,29.2,138.06,31.02,24.66,36.44,0.04,-272.75,-272.74,-45,567,-951,25.5,2.8,-23.7,25.5,2.9,-23.4,5.73,2.43,-25.4,30.3
2012-11-11 00:31:00,0.0,1.9095,0.0007,399.77,0.22,110.2,33.4,138.06,31.02,24.65,36.43,0.04,-272.75,-272.75,-45,567,-951,25.5,2.8,-23.6,25.5,2.8,-23.4,5.73,2.43,-25.4,30.3
2012-11-11 00:32:00,0.0,1.9100,0.0008,399.80,0.19,112.6,28.7,138.06,31.02,24.66,36.43,0.04,-272.75,-272.75,-45,567,-951,25.5,2.8,-23.7,25.5,2.9,-23.4,5.73,2.43,-25.4,30.3
2012-11-11 00:33:00,0.0,1.9101,0.0010,399.81,0.25,110.0,26.1,138.06,31.02,24.65,36.43,0.04,-272.75,-272.75,-45,567,-951,25.5,2.8,-23.5,25.5,2.9,-23.3,5.73,2.43,-25.4,30.3
2012-11-11 00:34:00,0.0,1.9091,0.0009,399.70,0.25,104.9,30.5,138.06,31.02,24.66,36.43,0.04,-272.75,-272.75,-45,567,-951,25.5,2.8,-23.6,25.5,2.9,-23.3,5.73,2.43,-25.4,30.3
2012-11-11 00:35:00,0.0,1.9090,0.0010,399.73,0.22,108.3,29.0,138.06,31.01,24.66,36.43,0.04,-272.75,-272.75,-45,567,-951,25.5,2.8,-23.6,25.5,2.9,-23.3,5.73,2.43,-25.3,30.3
2012-11-11 00:36:00,0.0,1.9091,0.0011,399.67,0.21,109.9,27.2,138.06,31.01,24.66,36.44,0.04,-272.75,-272.75,-45,567,-951,25.5,2.8,-23.6,25.5,2.9,-23.3,5.73,2.43,-25.4,30.3
2012-11-11 00:37:00,0.0,1.9093,0.0009,399.74,0.25,110.5,29.9,138.06,31.01,24.66,36.43,0.04,-272.75,-272.75,-45,567,-951,25.5,2.8,-23.5,25.5,2.9,-23.3,5.73,2.43,-25.4,30.3
2012-11-11 00:38:00,0.0,1.9093,0.0008,399.80,0.26,99.9,28.9,138.06,31.01,24.65,36.43,0.04,-272.75,-272.75,-45,567,-952,25.5,2.9,-23.4,25.4,2.9,-23.2,5.73,2.43,-25.3,30.2
2012-11-11 00:39:00,0.0,1.9082,0.0010,399.84,0.27,115.4,28.0,138.06,31.01,24.66,36.43,0.04,-272.75,-272.75,-45,567,-951,25.5,2.9,-23.3,25.5,2.9,-23.1,5.73,2.43,-25.3,30.3
2012-11-11 00:40:00,0.0,1.9083,0.0008,399.80,0.19,110.3,29.4,138.06,31.01,24.65,36.42,0.04,-272.75,-272.75,-45,567,-951,25.5,2.9,-23.3,25.5,3.0,-23.0,5.73,2.43,-25.3,30.2
2012-11-11 00:41:00,0.0,1.9084,0.0007,399.68,0.23,115.2,28.4,138.06,31.01,24.65,36.43,0.04,-272.75,-272.74,-45,567,-951,25.5,2.9,-23.3,25.5,3.0,-23.0,5.73,2.42,-25.4,30.2
2012-11-11 00:42:00,0.0,1.9078,0.0008,399.66,0.25,115.1,29.8,138.06,31.01,24.66,36.43,0.04,-272.74,-272.74,-45,567,-951,25.5,2.9,-23.1,25.5,3.0,-22.9,5.73,2.43,-25.3,30.2
2012-11-11 00:43:00,0.0,1.9080,0.0008,399.77,0.25,109.6,25.6,138.06,31.00,24.65,36.42,0.04,-272.75,-272.75,-45,567,-951,25.5,2.9,-23.2,25.5,3.0,-22.9,5.73,2.43,-25.4,30.3
2012-11-11 00:44:00,0.0,1.9082,0.0009,399.63,0.22,109.6,32.2,138.06,31.00,24.65,36.43,0.04,-272.75,-272.75,-45,567,-951,25.5,2.9,-23.3,25.4,3.0,-23.0,5.73,2.42,-25.4,30.3
2012-11-11 00:45:00,0.0,1.9079,0.0010,399.61,0.28,117.0,33.5,138.06,31.00,24.65,36.43,0.04,-272.75,-272.75,-45,567,-951,25.4,2.9,-23.3,25.4,2.9,-23.1,5.73,2.42,-25.4,30.3
2012-11-11 00:46:00,0.0,1.9082,0.0009,399.58,0.26,114.9,31.5,138.06,31.00,24.66,36.44,0.04,-272.75,-272.75,-45,567,-951,25.4,2.8,-23.5,25.5,2.9,-23.3,5.73,2.43,-25.4,30.2
2012-11-11 00:47:00,0.0,1.9086,0.0009,399.72,0.26,110.0,28.3,138.06,30.99,24.65,36.43,0.04,-272.75,-272.75,-45,567,-951,25.4,2.8,-23.6,25.5,2.9,-23.4,5.73,2.42,-25.4,30.3
2012-11-11 00:48:00,0.0,1.9086,0.0009,399.64,0.24,111.0,35.2,138.06,30.99,24.65,36.44,0.04,-272.75,-272.75,-45,567,-951,25.5,2.8,-23.7,25.5,2.8,-23.5,5.73,2.42,-25.4,30.3
2012-11-11 00:49:00,0.0,1.9091,0.0010,399.66,0.20,106.9,30.4,138.06,30.99,24.65,36.44,0.04,-272.74,-272.75,-45,567,-951,25.4,2.7,-23.8,25.5,2.8,-23.6,5.73,2.42,-25.4,30.2
2012-11-11 00:50:00,0.0,1.9093,0.0008,399.79,0.23,111.3,31.5,138.06,30.99,24.66,36.43,0.04,-272.75,-272.75,-45,567,-951,25.4,2.7,-23.9,25.4,2.8,-23.7,5.73,2.42,-25.4,30.2
2012-11-11 00:51:00,0.0,1.9096,0.0009,399.78,0.25,113.0,37.5,138.06,30.98,24.66,36.43,0.04,-272.75,-272.75,-45,567,-951,25.4,2.7,-24.0,25.4,2.8,-23.8,5.73,2.42,-25.4,30.3
2012-11-11 00:52:00,0.0,1.9099,0.0012,399.80,0.20,106.9,30.8,138.06,30.98,24.66,36.43,0.04,-272.75,-272.74,-45,567,-951,25.4,2.7,-24.0,25.4,2.8,-23.8,5.73,2.42,-25.4,30.3
2012-11-11 00:53:00,0.0,1.9101,0.0010,399.83,0.24,111.6,31.8,138.06,30.98,24.65,36.42,0.04,-272.75,-272.75,-45,567,-951,25.4,2.7,-24.0,25.4,2.8,-23.8,5.73,2.42,-25.4,30.3
2012-11-11 00:54:00,0.0,1.9095,0.0008,399.84,0.21,114.4,28.6,138.06,30.98,24.66,36.43,0.04,-272.75,-272.75,-45,567,-951,25.4,2.7,-24.0,25.4,2.8,-23.8,5.73,2.42,-25.4,30.3
2012-11-11 00:55:00,0.0,1.9097,0.0009,399.79,0.20,114.3,29.8,138.06,30.98,24.66,36.43,0.04,-272.75,-272.75,-45,567,-951,25.4,3.1,-22.6,25.4,3.1,-22.5,5.73,2.42,-25.4,30.3
2012-11-11 00:56:00,0.0,1.9095,0.0010,399.88,0.23,115.3,29.7,138.06,30.98,24.65,36.43,0.04,-272.74,-272.75,-45,567,-951,25.4,2.7,-23.9,25.4,2.8,-23.6,5.73,2.42,-25.4,30.3
2012-11-11 00:57:00,0.0,1.9092,0.0009,399.82,0.27,120.3,31.9,138.06,30.97,24.65,36.43,0.04,-272.75,-272.75,-45,567,-951,25.4,2.7,-24.0,25.4,2.8,-23.8,5.73,2.42,-25.4,30.2
2012-11-11 00:58:00,0.0,1.9092,0.0011,399.86,0.24,119.3,32.8,138.06,30.97,24.66,36.43,0.04,-272.75,-272.75,-45,567,-951,25.4,2.7,-24.0,25.4,2.8,-23.8,5.73,2.42,-25.3,30.3
2012-11-11 00:59:00,0.0,1.9091,0.0009,399.84,0.23,116.6,30.1,138.06,30.97,24.66,36.43,0.04,-272.75,-272.75,-45,567,-951,25.5,2.7,-24.1,25.4,2.8,-23.8,5.73,2.42,-25.3,30.3
2012-11-11 01:00:00,0.0,1.9094,0.0011,399.81,0.25,118.9,25.6,138.06,30.97,24.65,36.43,0.04,-272.75,-272.75,-45,567,-951,25.4,2.7,-24.1,25.4,2.8,-23.8,5.73,2.43,-25.4,30.3
2012-11-11 01:01:00,0.0,1.9095,0.0010,399.78,0.26,110.6,29.5,138.06,30.97,24.65,36.43,0.04,-272.75,-272.75,-45,567,-951,25.4,2.7,-24.2,25.4,2.7,-23.9,5.73,2.43,-25.4,30.3
2012-11-11 01:02:00,0.0,1.9092,0.0009,399.86,0.21,110.3,35.7,138.06,30.97,24.66,36.43,0.04,-272.75,-272.75,-45,567,-951,25.5,2.6,-24.3,25.4,2.7,-24.0,5.73,2.43,-25.4,30.3
2012-11-11 01:03:00,0.0,1.9092,0.0009,399.74,0.23,116.1,27.1,138.06,30.97,24.65,36.44,0.04,-272.75,-272.75,-45,567,-951,25.5,2.6,-24.4,25.4,2.7,-24.2,5.73,2.43,-25.3,30.3
2012-11-11 01:04:00,0.0,1.9097,0.0008,399.76,0.22,116.5,31.1,138.06,30.96,24.65,36.43,0.04,-272.75,-272.75,-45,567,-951,25.5,2.6,-24.5,25.4,2.6,-24.3,5.73,2.43,-25.3,30.3
2012-11-11 01:05:00,0.0,1.9093,0.0008,399.68,0.29,112.3,31.3,138.06,30.96,24.66,36.44,0.04,-272.74,-272.74,-45,567,-951,25.5,2.6,-24.6,25.4,2.6,-24.5,5.73,2.43,-25.3,30.3
2012-11-11 01:06:00,0.0,1.9095,0.0008,399.82,0.23,116.0,27.6,138.06,30.96,24.65,36.43,0.04,-272.75,-272.75,-45,567,-951,25.5,2.5,-24.7,25.4,2.6,-24.5,5.73,2.43,-25.3,30.2
2012-11-11 01:07:00,0.0,1.9094,0.0008,399.77,0.27,109.4,29.6,138.06,30.96,24.65,36.43,0.04,-272.75,-272.75,-45,567,-951,25.4,2.5,-24.8,25.4,2.6,-24.6,5.73,2.43,-25.3,30.3
2012-11-11 01:08:00,0.0,1.9097,0.0009,399.77,0.24,106.8,32.3,138.06,30.96,24.65,36.43,0.04,-272.75,-272.75,-45,567,-951,25.4,2.5,-24.7,25.4,2.6,-24.5,5.73,2.43,-25.3,30.3
2012-11-11 01:09:00,0.0,1.9095,0.0008,399.69,0.18,115.5,31.4,138.06,30.96,24.65,36.43,0.04,-272.75,-272.75,-45,567,-951,25.4,2.6,-24.6,25.4,2.6,-24.4,5.73,2.43,-25.4,30.2
2012-11-11 01:10:00,0.0,1.9097,0.0007,399.73,0.22,119.2,35.8,138.06,30.96,24.66,36.44,0.04,-272.75,-272.75,-45,567,-951,25.4,2.6,-24.5,25.4,2.6,-24.3,5.73,2.43,-25.4,30.3
2012-11-11 01:11:00,0.0,1.9099,0.0008,399.82,0.27,116.0,32.1,138.06,30.96,24.65,36.42,0.04,-272.75,-272.75,-45,567,-951,25.4,2.6,-24.4,25.4,2.7,-24.2,5.73,2.43,-25.4,30.2
2012-11-11 01:12:00,0.0,1.9096,0.0009,399.76,0.23,111.3,27.2,138.06,30.96,24.66,36.43,0.04,-272.74,-272.75,-45,567,-951,25.4,2.6,-24.3,25.4,2.7,-24.1,5.73,2.43,-25.4,30.3
2012-11-11 01:13:00,0.0,1.9097,0.0009,399.73,0.23,114.6,32.4,138.06,30.95,24.65,36.43,0.04,-272.75,-272.75,-45,567,-951,25.4,2.7,-24.2,25.4,2.7,-24.0,5.73,2.43,-25.4,30.3
2012-11-11 01:14:00,0.0,1.9093,0.0008,399.74,0.24,119.0,27.7,138.06,30.95,24.65,36.43,0.04,-272.75,-272.75,-45,567,-951,25.4,2.6,-24.3,25.4,2.7,-23.9,5.73,2.43,-25.4,30.3
2012-11-11 01:15:00,0.0,1.9092,0.0011,399.80,0.21,111.4,31.0,138.06,30.95,24.65,36.43,0.04,-272.75,-272.75,-45,567,-951,25.4,2.7,-24.2,25.4,2.7,-24.0,5.73,2.43,-25.4,30.2
2012-11-11 01:16:00,0.0,1.9095,0.0008,399.81,0.24,110.9,30.4,138.06,30.95,24.65,36.43,0.04,-272.75,-272.74,-45,567,-951,25.4,2.7,-24.2,25.4,2.7,-24.0,5.73,2.43,-25.4,30.3
2012-11-11 01:17:00,0.0,1.9091,0.0010,399.73,0.25,111.8,32.8,138.06,30.95,24.65,36.43,0.04,-272.75,-272.75,-45,567,-951,25.4,2.7,-24.2,25.4,2.7,-24.0,5.73,2.44,-25.4,30.3
2012-11-11 01:18:00,0.0,1.9086,0.0008,399.76,0.26,112.0,29.5,138.06,30.95,24.65,36.43,0.04,-272.75,-272.75,-45,567,-951,25.4,2.7,-24.0,25.4,2.8,-23.8,5.73,2.43,-25.4,30.3
2012-11-11 01:19:00,0.0,1.9083,0.0010,399.78,0.22,104.5,32.8,138.06,30.95,24.65,36.43,0.04,-272.74,-272.75,-45,566,-951,25.4,2.7,-23.9,25.4,2.8,-23.7,5.73,2.43,-25.4,30.2
2012-11-11 01:20:00,0.0,1.9084,0.0009,399.62,0.25,114.2,26.8,138.06,30.95,24.65,36.44,0.04,-272.75,-272.75,-45,567,-951,25.4,2.8,-23.9,25.4,2.8,-23.6,5.73,2.43,-25.4,30.2
2012-11-11 01:21:00,0.0,1.9081,0.0009,399.68,0.25,111.7,34.1,138.06,30.95,24.65,36.43,0.04,-272.75,-272.75,-45,566,-951,25.4,2.8,-23.8,25.4,2.8,-23.5,5.73,2.43,-25.4,30.2
2012-11-11 01:22:00,0.0,1.9087,0.0008,399.75,0.24,113.0,32.5,138.06,30.94,24.65,36.43,0.04,-272.75,-272.75,-45,566,-951,25.4,2.8,-23.6,25.4,2.9,-23.3,5.73,2.43,-25.4,30.3
2012-11-11 01:23:00,0.0,1.9082,0.0011,399.73,0.22,107.9,32.7,138.06,30.94,24.65,36.43,0.04,-272.75,-272.75,-45,566,-951,25.4,2.8,-23.5,25.4,2.9,-23.3,5.73,2.43,-25.4,30.3
2012-11-11 01:24:00,0.0,1.9077,0.0010,399.70,0.26,115.9,33.5,138.06,30.94,24.66,36.43,0.04,-272.75,-272.75,-45,567,-951,25.4,2.8,-23.5,25.4,2.9,-23.3,5.73,2.44,-25.4,30.3
2012-11-11 01:25:00,0.0,1.9083,0.0010,399.68,0.21,107.4,27.8,138.06,30.94,24.65,36.43,0.04,-272.75,-272.75,-45,566,-951,25.4,2.8,-23.5,25.4,2.9,-23.2,5.73,2.43,-25.4,30.2
2012-11-11 01:26:00,0.0,1.9078,0.0009,399.57,0.21,112.8,34.8,138.06,30.94,24.66,36.44,0.04,-272.75,-272.75,-45,566,-951,25.4,2.9,-23.4,25.4,2.9,-23.1,5.73,2.43,-25.4,30.2
2012-11-11 01:27:00,0.0,1.9081,0.0011,399.67,0.31,111.1,29.8,138.06,30.93,24.66,36.44,0.04,-272.75,-272.75,-45,566,-951,25.4,2.9,-23.4,25.4,2.9,-23.1,5.73,2.43,-25.4,30.2
2012-11-11 01:28:00,0.0,1.9083,0.0011,399.64,0.22,114.1,30.7,138.06,30.93,24.65,36.43,0.04,-272.75,-272.75,-45,566,-951,25.4,2.9,-23.3,25.4,3.0,-23.0,5.73,2.43,-25.4,30.2
2012-11-11 01:29:00,0.0,1.9085,0.0009,399.63,0.22,109.2,32.5,138.06,30.93,24.65,36.44,0.04,-272.74,-272.75,-45,566,-951,25.4,2.9,-23.2,25.4,3.0,-23.0,5.73,2.42,-25.4,30.2
2012-11-11 01:30:00,0.0,1.9083,0.0009,399.66,0.22,104.0,35.3,138.06,30.93,24.65,36.44,0.04,-272.75,-272.75,-45,566,-951,25.4,2.9,-23.2,25.4,3.0,-23.0,5.73,2.43,-25.4,30.2
2012-11-11 01:31:00,0.0,1.9084,0.0008,399.62,0.23,103.2,32.0,138.06,30.93,24.65,36.43,0.04,-272.75,-272.75,-45,567,-951,25.4,3.0,-23.1,25.4,3.0,-22.8,5.73,2.43,-25.4,30.2
2012-11-11 01:32:00,0.0,1.9088,0.0008,399.69,0.29,99.2,29.5,138.06,30.92,24.65,36.43,0.04,-272.75,-272.75,-45,566,-951,25.4,3.0,-23.0,25.4,3.0,-22.7,5.73,2.43,-25.4,30.2
2012-11-11 01:33:00,0.0,1.9088,0.0010,399.71,0.25,111.4,33.2,138.06,30.92,24.65,36.43,0.04,-272.75,-272.75,-45,566,-951,25.4,3.0,-22.9,25.4,3.1,-22.6,5.73,2.42,-25.4,30.2
2012-11-11 01:34:00,0.0,1.9081,0.0009,399.71,0.27,107.1,35.0,138.06,30.92,24.66,36.43,0.04,-272.75,-272.75,-45,566,-951,25.4,3.0,-22.9,25.4,3.1,-22.7,5.73,2.42,-25.4,30.3
2012-11-11 01:35:00,0.0,1.9082,0.0012,399.73,0.21,103.0,32.2,138.06,30.92,24.65,36.43,0.04,-272.75,-272.75,-45,566,-951,25.4,3.0,-22.9,25.4,3.1,-22.7,5.73,2.42,-25.4,30.3
2012-11-11 01:36:00,0.0,1.9084,0.0010,399.82,0.19,113.9,32.6,138.06,30.92,24.65,36.42,0.04,-272.74,-272.75,-45,566,-951,25.4,3.0,-23.0,25.4,3.0,-22.8,5.73,2.42,-25.4,30.2
2012-11-11 01:37:00,0.0,1.9083,0.0011,399.64,0.23,115.7,36.5,138.06,30.92,24.65,36.43,0.04,-272.75,-272.75,-45,566,-951,25.4,2.9,-23.2,25.4,3.0,-23.0,5.73,2.42,-25.4,30.2
2012-11-11 01:38:00,0.0,1.9080,0.0009,399.62,0.22,114.6,29.2,138.06,30.91,24.66,36.43,0.04,-272.75,-272.75,-45,566,-951,25.4,2.9,-23.4,25.4,3.0,-23.1,5.73,2.43,-25.4,30.2
2012-11-11 01:39:00,0.0,1.9085,0.0009,399.69,0.23,109.7,31.2,138.06,30.91,24.65,36.42,0.04,-272.75,-272.75,-45,566,-951,25.4,4.2,-19.2,25.4,4.3,-19.0,5.73,2.42,-25.4,30.2
2012-11-11 01:40:00,0.0,1.9084,0.0009,399.64,0.24,105.3,32.2,138.06,30.91,24.66,36.43,0.04,-272.75,-272.75,-45,566,-951,25.4,2.9,-23.2,25.4,3.0,-22.8,5.73,2.42,-25.4,30.2
2012-11-11 01:41:00,0.0,1.9083,0.0011,399.59,0.23,118.0,27.0,138.06,30.91,24.65,36.43,0.04,-272.75,-272.75,-45,566,-951,25.4,2.8,-23.8,25.4,2.8,-23.5,5.73,2.43,-25.3,30.2
2012-11-11 01:42:00,0.0,1.9084,0.0010,399.73,0.25,108.5,26.9,138.06,30.91,24.65,36.43,0.04,-272.75,-272.75,-45,566,-951,25.4,2.7,-23.9,25.4,2.8,-23.6,5.73,2.42,-25.3,30.2
2012-11-11 01:43:00,0.0,1.9079,0.0011,399.71,0.22,107.0,26.5,138.06,30.91,24.66,36.43,0.04,-272.75,-272.75,-45,566,-951,25.4,2.7,-23.9,25.4,2.8,-23.7,5.73,2.42,-25.4,30.2
2012-11-11 01:44:00,0.0,1.9090,0.0010,399.77,0.22,107.3,30.2,138.06,30.91,24.65,36.43,0.04,-272.75,-272.75,-45,566,-951,25.4,2.7,-24.0,25.4,2.8,-23.8,5.73,2.42,-25.4,30.2
2012-11-11 01:45:00,0.0,1.9097,0.0011,399.67,0.25,106.5,31.0,138.06,30.90,24.65,36.44,0.04,-272.75,-272.75,-45,566,-951,25.4,2.7,-24.1,25.4,2.8,-23.8,5.73,2.42,-25.4,30.2
2012-11-11 01:46:00,0.0,1.9094,0.0008,399.73,0.20,109.9,27.2,138.06,30.90,24.65,36.43,0.04,-272.75,-272.75,-45,566,-951,25.4,2.7,-24.2,25.3,2.7,-23.9,5.73,2.42,-25.3,30.2
2012-11-11 01:47:00,0.0,1.9099,0.0010,399.67,0.22,110.9,33.1,138.06,30.90,24.65,36.43,0.04,-272.75,-272.75,-45,566,-951,25.3,2.7,-24.3,25.4,2.7,-23.9,5.73,2.43,-25.4,30.2
2012-11-11 01:48:00,0.0,1.9101,0.0009,399.72,0.21,104.6,28.3,138.06,30.90,24.65,36.43,0.04,-272.75,-272.75,-45,566,-951,25.4,2.7,-24.3,25.3,2.7,-24.1,5.73,2.42,-25.4,30.2
2012-11-11 01:49:00,0.0,1.9101,0.0009,399.78,0.25,106.6,32.9,138.06,30.90,24.65,36.43,0.04,-272.75,-272.75,-45,566,-951,25.3,2.6,-24.3,25.3,2.7,-24.0,5.73,2.43,-25.4,30.2
2012-11-11 01:50:00,0.0,1.9096,0.0009,399.71,0.26,113.6,26.9,138.06,30.90,24.65,36.43,0.04,-272.75,-272.75,-45,566,-951,25.3,2.7,-24.2,25.3,2.7,-24.1,5.73,2.43,-25.4,30.2
2012-11-11 01:51:00,0.0,1.9094,0.0009,399.75,0.22,114.7,32.7,138.06,30.90,24.65,36.43,0.04,-272.75,-272.75,-45,566,-951,25.4,2.7,-24.2,25.3,2.7,-24.0,5.73,2.42,-25.4,30.2
2012-11-11 01:52:00,0.0,1.9096,0.0009,399.71,0.23,113.1,32.1,138.06,30.90,24.65,36.44,0.04,-272.75,-272.75,-45,566,-951,25.3,2.7,-24.2,25.3,2.7,-23.9,5.73,2.42,-25.4,30.2
2012-11-11 01:53:00,0.0,1.9092,0.0010,399.70,0.24,108.7,26.7,138.06,30.89,24.66,36.43,0.04,-272.74,-272.75,-45,566,-951,25.3,2.7,-24.1,25.3,2.8,-23.8,5.73,2.43,-25.4,30.2
2012-11-11 01:54:00,0.0,1.9093,0.0009,399.70,0.28,121.9,35.5,138.06,30.89,24.65,36.43,0.04,-272.75,-272.75,-45,566,-951,25.3,2.7,-23.9,25.3,2.8,-23.7,5.73,2.43,-25.4,30.2
2012-11-11 01:55:00,0.0,1.9094,0.0012,399.74,0.25,109.4,28.7,138.06,30.89,24.65,36.43,0.04,-272.75,-272.75,-45,566,-951,25.4,2.8,-23.8,25.3,2.8,-23.6,5.73,2.42,-25.4,30.2
2012-11-11 01:56:00,0.0,1.9092,0.0010,399.72,0.27,104.4,30.8,138.06,30.89,24.65,36.43,0.04,-272.75,-272.75,-45,566,-951,25.4,2.8,-23.6,25.3,2.9,-23.4,5.73,2.43,-25.4,30.2
2012-11-11 01:57:00,0.0,1.9093,0.0009,399.71,0.23,115.9,30.7,138.06,30.89,24.65,36.43,0.04,-272.75,-272.75,-45,566,-951,25.4,2.9,-23.5,25.3,2.9,-23.3,5.73,2.42,-25.3,30.2
2012-11-11 01:58:00,0.0,1.9088,0.0009,399.70,0.18,112.6,32.9,138.06,30.89,24.65,36.43,0.04,-272.75,-272.75,-45,566,-951,25.4,2.9,-23.4,25.3,2.9,-23.2,5.73,2.43,-25.3,30.2
2012-11-11 01:59:00,0.0,1.9085,0.0012,399.63,0.24,111.7,27.7,138.06,30.89,24.66,36.44,0.04,-272.75,-272.75,-45,566,-951,25.4,2.9,-23.3,25.3,3.0,-23.1,5.73,2.43,-25.3,30.2
2012-11-11 02:00:00,0.0,1.9091,0.0011,399.68,0.28,113.4,24.6,138.06,30.88,24.65,36.43,0.04,-272.75,-272.74,-45,566,-951,25.3,2.9,-23.3,25.3,3.0,-23.0,5.73,2.43,-25.3,30.2
2012-11-11 02:01:00,0.0,1.9085,0.0010,399.70,0.23,117.9,28.7,138.06,30.88,24.65,36.43,0.04,-272.75,-272.75,-45,566,-951,25.3,3.0,-23.1,25.3,3.0,-22.9,5.73,2.43,-25.3,30.2
2012-11-11 02:02:00,0.0,1.9086,0.0009,399.62,0.23,109.5,26.9,138.06,30.88,24.65,36.44,0.04,-272.75,-272.75,-45,566,-951,25.3,3.0,-23.1,25.3,3.0,-22.8,5.73,2.43,-25.3,30.2
2012-11-11 02:03:00,0.0,1.9091,0.0009,399.77,0.22,108.9,30.2,138.06,30.88,24.65,36.43,0.04,-272.74,-272.75,-45,566,-951,25.3,3.0,-23.0,25.3,3.0,-22.7,5.73,2.43,-25.3,30.1
2012-11-11 02:04:00,0.0,1.9080,0.0010,399.70,0.26,116.4,26.4,138.06,30.87,24.66,36.43,0.04,-272.75,-272.75,-45,566,-951,25.3,3.0,-22.9,25.3,3.1,-22.6,5.73,2.43,-25.4,30.1
2012-11-11 02:05:00,0.0,1.9080,0.0009,399.68,0.21,102.6,28.2,138.06,30.87,24.65,36.43,0.04,-272.75,-272.75,-45,566,-951,25.3,3.0,-22.9,25.3,3.1,-22.6,5.73,2.43,-25.3,30.2
2012-11-11 02:06:00,0.0,1.9077,0.0009,399.68,0.22,115.8,30.9,138.06,30.87,24.66,36.43,0.04,-272.75,-272.75,-45,566,-951,25.3,3.0,-22.8,25.3,3.1,-22.6,5.73,2.43,-25.3,30.1
2012-11-11 02:07:00,0.0,1.9077,0.0009,399.62,0.21,115.7,29.6,138.06,30.87,24.65,36.43,0.04,-272.75,-272.75,-45,566,-951,25.3,3.1,-22.5,25.3,3.2,-22.3,5.73,2.43,-25.3,30.2
2012-11-11 02:08:00,0.0,1.9083,0.0010,399.65,0.25,108.0,31.1,138.06,30.87,24.65,36.43,0.04,-272.75,-272.75,-45,566,-951,25.3,3.1,-22.7,25.3,3.1,-22.5,5.73,2.43,-25.3,30.2
2012-11-11 02:09:00,0.0,1.9077,0.0008,399.72,0.22,103.1,29.3,138.06,30.86,24.65,36.43,0.04,-272.75,-272.75,-45,566,-951,25.3,3.1,-22.6,25.3,3.1,-22.4,5.73,2.43,-25.3,30.2
2012-11-11 02:10:00,0.0,1.9077,0.0009,399.65,0.22,114.1,32.1,138.06,30.86,24.65,36.43,0.04,-272.75,-272.74,-45,566,-951,25.3,3.1,-22.5,25.3,3.2,-22.3,5.73,2.43,-25.4,30.2
2012-11-11 02:11:00,0.0,1.9076,0.0011,399.69,0.19,107.8,30.4,138.06,30.86,24.66,36.43,0.04,-272.75,-272.75,-45,566,-951,25.3,3.1,-22.4,25.3,3.2,-22.2,5.73,2.43,-25.4,30.2
2012-11-11 02:12:00,0.0,1.9079,0.0009,399.68,0.23,111.5,34.2,138.06,30.86,24.65,36.43,0.04,-272.75,-272.75,-45,566,-951,25.3,3.2,-22.3,25.3,3.2,-22.1,5.73,2.43,-25.1,30.2
2012-11-11 02:13:00,0.0,1.9075,0.0010,399.58,0.26,113.5,32.2,138.06,30.86,24.65,36.44,0.04,-272.75,-272.75,-45,566,-951,25.3,3.1,-22.6,25.3,3.2,-22.4,5.73,2.43,-24.9,30.2
2012-11-11 02:14:00,0.0,1.9078,0.0008,399.69,0.24,102.3,28.1,138.06,30.86,24.65,36.43,0.04,-272.75,-272.75,-45,566,-951,25.3,3.0,-22.9,25.3,3.1,-22.7,5.73,2.43,-24.9,30.2
2012-11-11 02:15:00,0.0,1.9072,0.0009,399.70,0.25,112.9,31.9,138.06,30.86,24.66,36.43,0.04,-272.75,-272.75,-45,566,-951,25.3,3.0,-23.1,25.3,3.0,-22.9,5.73,2.43,-24.9,30.2
2012-11-11 02:16:00,0.0,1.9078,0.0009,399.63,0.28,109.0,37.5,138.06,30.86,24.65,36.43,0.04,-272.75,-272.75,-45,566,-951,25.3,3.0,-23.0,25.3,3.0,-22.8,5.73,2.43,-24.9,30.2